CZ-3C DEB, 39348

Orbit data source: Space-Track

CZ-3C DEB, 39348 is space debris in HEO originally from a launch on Sun, 31 Oct 2010 UTC launched from the Xichang Space Center, China (XSC). Debris objects in space refer to the collection of defunct objects orbiting the Earth. Examples of debris include non-operational satellites, rocket bodies, and fragments generated from explosions, collisions, or faulty payload assembly.

Loading next visibility...
Identifier
39348, 2010-057N
Orbit
HEO
Country
Flag of CNCN / PRC
Related business
Manufacturer
CALT
Mission
Spacecraft
Bus & Motor
Unknown
Mass
Unknown
Launch date (UTC)
2010-10-31 (16 years ago)
Launch vehicle
Unknown
Launch site
Xichang Space Center, China (XSC)
Object type
Payload
Rocket body
Debris
Shape & HBR
Unknown shape, 2.1 m
Radar Cross Section
Large (>1 m²)

Expand to show TLE details & history
Last TLE update: 1 day ago

TLE from 1 day ago
0 CZ-3C DEB
1 39348U 10057N   26171.19476750 -.00000067  00000-0  16610-3 0  9997
2 39348  20.5879 325.8250 7215609  37.7409 355.5035  2.26179883104462
Epoch: 2026-06-20T04:40Z
TLE epoch observation values (Epoch: 2026-06-20T04:40:27.911Z)
Latitude
0.00139°
Longitude
-12.69539°
Altitude
1,125.72 km
Speed
9.485 km/s
True Right ascension
21h 43m 20s
True Declination
0° 00' 05"
Sunlit
Object was in daylight at epoch
Visualization orbit readout
Latitude
Unknown
Longitude
Unknown
Altitude
Unknown
Speed
Unknown
Apparent Right ascension
Unknown
Apparent Declination
Unknown
Sunlit
N/A
Visualization observer readout
Local Sidereal Time
23:55:17
Azimuth
Unknown
Elevation
Unknown
Doppler factor
Unknown
Orbital elements
Apogee altitude
35,833.607 km
Perigee altitude
449.039 km
Semi-major axis
24,519.46 km
Eccentricity
0.72156
Inclination
20.5879°
RAAN
325.825°
Arg. of periapsis
37.7409°
True anomaly
322.27459°
Mean anomaly
355.5035°
Eccentric anomaly
344.35317°
Mean motion
0.5653 °/min
Orbital period
636.83 mins
BSTAR
0.0001661
Loading maneuver chart data...
Computing Atmospheric mass density...
Loading historical data...
Loading historical data...
Loading historical data...
Loading historical data...
Loading historical data...
Loading historical data...
Loading historical data...

Documentation

Showing up to 5 results
|